Time,TemperatureF,DewpointF,PressureIn,WindDirection,WindDirectionDegrees,WindSpeedMPH,WindSpeedGustMPH,Humidity,HourlyPrecipIn,Conditions,Clouds,dailyrainin,SoftwareType,DateUTC
2013-01-31 00:00:00,55.0,51.2,28.69,ENE,67,5.0,21.0,87,0.05,,,0.00,Weather View 32 v70,2013-01-31 05:00:00,
2013-01-31 00:02:00,54.8,50.4,28.69,South,180,8.0,19.0,85,0.05,,,0.00,Weather View 32 v70,2013-01-31 05:02:00,
2013-01-31 00:06:00,55.0,50.9,28.68,East,90,4.0,19.0,86,0.06,,,0.01,Weather View 32 v70,2013-01-31 05:06:00,
2013-01-31 00:11:00,55.0,50.9,28.68,ENE,67,11.0,19.0,86,0.06,,,0.01,Weather View 32 v70,2013-01-31 05:11:00,
2013-01-31 00:16:00,55.0,50.9,28.68,East,90,3.0,19.0,86,0.07,,,0.02,Weather View 32 v70,2013-01-31 05:16:00,
2013-01-31 00:21:00,54.9,50.8,28.67,SSE,157,2.0,16.0,86,0.06,,,0.03,Weather View 32 v70,2013-01-31 05:21:00,
2013-01-31 00:26:00,55.0,50.6,28.67,ENE,67,9.0,16.0,85,0.07,,,0.03,Weather View 32 v70,2013-01-31 05:26:00,
2013-01-31 00:31:00,55.1,50.7,28.66,SE,135,0.0,16.0,85,0.08,,,0.04,Weather View 32 v70,2013-01-31 05:31:00,
2013-01-31 00:36:00,55.1,50.3,28.66,ESE,112,7.0,16.0,84,0.07,,,0.05,Weather View 32 v70,2013-01-31 05:36:00,
2013-01-31 00:41:00,54.9,49.8,28.65,ENE,67,4.0,17.0,83,0.08,,,0.05,Weather View 32 v70,2013-01-31 05:41:00,
2013-01-31 00:46:00,55.0,50.6,28.65,SE,135,2.0,17.0,85,0.08,,,0.06,Weather View 32 v70,2013-01-31 05:46:00,
2013-01-31 00:51:00,54.9,50.5,28.64,NNE,22,0.0,17.0,85,0.07,,,0.06,Weather View 32 v70,2013-01-31 05:51:00,
2013-01-31 00:56:00,54.8,49.7,28.63,ENE,67,7.0,17.0,83,0.08,,,0.07,Weather View 32 v70,2013-01-31 05:56:00,
2013-01-31 01:01:00,54.6,49.5,28.62,SSE,157,2.0,17.0,83,0.08,,,0.08,Weather View 32 v70,2013-01-31 06:01:00,
2013-01-31 01:06:00,54.7,49.3,28.61,SE,135,4.0,17.0,82,0.07,,,0.08,Weather View 32 v70,2013-01-31 06:06:00,
2013-01-31 01:11:00,54.7,49.3,28.61,East,90,7.0,17.0,82,0.08,,,0.09,Weather View 32 v70,2013-01-31 06:11:00,
2013-01-31 01:16:00,54.7,49.3,28.60,SSE,157,4.0,17.0,82,0.07,,,0.09,Weather View 32 v70,2013-01-31 06:16:00,
2013-01-31 01:21:00,54.7,49.3,28.59,SSW,202,1.0,17.0,82,0.08,,,0.10,Weather View 32 v70,2013-01-31 06:21:00,
2013-01-31 01:26:00,54.7,49.3,28.58,South,180,5.0,17.0,82,0.07,,,0.11,Weather View 32 v70,2013-01-31 06:26:00,
2013-01-31 01:31:00,54.7,49.3,28.57,SSW,202,0.0,17.0,82,0.07,,,0.11,Weather View 32 v70,2013-01-31 06:31:00,
2013-01-31 01:36:00,54.6,49.2,28.57,WSW,247,0.0,17.0,82,0.08,,,0.12,Weather View 32 v70,2013-01-31 06:36:00,
2013-01-31 01:41:00,54.7,49.3,28.56,ESE,112,5.0,17.0,82,0.08,,,0.13,Weather View 32 v70,2013-01-31 06:41:00,
2013-01-31 01:46:00,54.7,49.3,28.56,SSE,157,2.0,15.0,82,0.07,,,0.13,Weather View 32 v70,2013-01-31 06:46:00,
2013-01-31 01:51:00,54.6,49.2,28.55,SSE,157,0.0,15.0,82,0.08,,,0.14,Weather View 32 v70,2013-01-31 06:51:00,
2013-01-31 01:56:00,54.6,49.2,28.56,NNE,22,2.0,15.0,82,0.07,,,0.14,Weather View 32 v70,2013-01-31 06:56:00,
2013-01-31 02:01:00,54.5,49.4,28.54,ENE,67,5.0,16.0,83,0.07,,,0.15,Weather View 32 v70,2013-01-31 07:01:00,
2013-01-31 02:06:00,54.4,49.7,28.53,SSE,157,0.0,16.0,84,0.07,,,0.15,Weather View 32 v70,2013-01-31 07:06:00,
2013-01-31 02:11:00,54.4,50.0,28.52,NNE,22,4.0,16.0,85,0.07,,,0.16,Weather View 32 v70,2013-01-31 07:11:00,
2013-01-31 02:16:00,54.4,50.0,28.52,NNE,22,0.0,16.0,85,0.07,,,0.16,Weather View 32 v70,2013-01-31 07:16:00,
2013-01-31 02:21:00,54.2,50.1,28.52,WSW,247,6.0,16.0,86,0.06,,,0.16,Weather View 32 v70,2013-01-31 07:21:00,
2013-01-31 02:26:00,54.4,50.0,28.51,South,180,2.0,16.0,85,0.06,,,0.16,Weather View 32 v70,2013-01-31 07:26:00,
2013-01-31 02:31:00,54.4,50.3,28.50,WNW,292,0.0,16.0,86,0.06,,,0.17,Weather View 32 v70,2013-01-31 07:31:00,
2013-01-31 02:36:00,54.4,50.6,28.49,ENE,67,1.0,16.0,87,0.05,,,0.17,Weather View 32 v70,2013-01-31 07:36:00,
2013-01-31 02:41:00,54.4,50.6,28.48,WNW,292,0.0,16.0,87,0.05,,,0.18,Weather View 32 v70,2013-01-31 07:41:00,
2013-01-31 02:46:00,54.4,50.6,28.48,West,270,5.0,16.0,87,0.05,,,0.18,Weather View 32 v70,2013-01-31 07:46:00,
2013-01-31 02:51:00,54.4,51.2,28.47,SSW,202,2.0,18.0,89,0.04,,,0.18,Weather View 32 v70,2013-01-31 07:51:00,
2013-01-31 02:56:00,54.3,51.1,28.46,East,90,1.0,18.0,89,0.04,,,0.18,Weather View 32 v70,2013-01-31 07:56:00,
2013-01-31 03:01:00,54.2,51.3,28.46,East,90,3.0,18.0,90,0.03,,,0.18,Weather View 32 v70,2013-01-31 08:01:00,
2013-01-31 03:06:00,54.2,51.3,28.46,SSE,157,12.0,18.0,90,0.03,,,0.18,Weather View 32 v70,2013-01-31 08:06:00,
2013-01-31 03:11:00,54.1,51.2,28.46,SSE,157,8.0,18.0,90,0.02,,,0.18,Weather View 32 v70,2013-01-31 08:11:00,
2013-01-31 03:16:00,53.9,51.6,28.45,East,90,6.0,18.0,92,0.02,,,0.18,Weather View 32 v70,2013-01-31 08:16:00,
2013-01-31 03:21:00,53.6,51.0,28.44,ESE,112,10.0,18.0,91,0.03,,,0.19,Weather View 32 v70,2013-01-31 08:21:00,
2013-01-31 03:26:00,53.4,51.1,28.44,SSE,157,5.0,19.0,92,0.03,,,0.19,Weather View 32 v70,2013-01-31 08:26:00,
2013-01-31 03:31:00,53.2,50.6,28.43,SSE,157,10.0,19.0,91,0.02,,,0.19,Weather View 32 v70,2013-01-31 08:31:00,
2013-01-31 03:36:00,53.0,50.4,28.43,ENE,67,9.0,19.0,91,0.02,,,0.20,Weather View 32 v70,2013-01-31 08:36:00,
2013-01-31 03:41:00,52.8,50.2,28.42,ENE,67,7.0,19.0,91,0.02,,,0.20,Weather View 32 v70,2013-01-31 08:41:00,
2013-01-31 03:46:00,52.6,49.7,28.41,East,90,7.0,19.0,90,0.03,,,0.21,Weather View 32 v70,2013-01-31 08:46:00,
2013-01-31 03:51:00,52.4,49.5,28.39,SE,135,11.0,19.0,90,0.03,,,0.21,Weather View 32 v70,2013-01-31 08:51:00,
2013-01-31 03:56:00,52.1,49.0,28.38,SE,135,5.0,19.0,89,0.03,,,0.21,Weather View 32 v70,2013-01-31 08:56:00,
2013-01-31 04:01:00,52.0,48.5,28.38,East,90,5.0,19.0,88,0.03,,,0.21,Weather View 32 v70,2013-01-31 09:01:00,
2013-01-31 04:06:00,51.9,48.1,28.37,SE,135,7.0,19.0,87,0.03,,,0.21,Weather View 32 v70,2013-01-31 09:06:00,
2013-01-31 04:11:00,51.8,47.7,28.36,ESE,112,7.0,19.0,86,0.04,,,0.22,Weather View 32 v70,2013-01-31 09:11:00,
2013-01-31 04:17:00,51.9,47.8,28.35,SE,135,2.0,19.0,86,0.04,,,0.22,Weather View 32 v70,2013-01-31 09:17:00,
2013-01-31 04:22:00,51.9,47.5,28.36,ESE,112,3.0,19.0,85,0.03,,,0.22,Weather View 32 v70,2013-01-31 09:22:00,
2013-01-31 04:27:00,52.0,47.3,28.34,SE,135,10.0,19.0,84,0.03,,,0.22,Weather View 32 v70,2013-01-31 09:27:00,
2013-01-31 04:32:00,52.0,47.3,28.34,ESE,112,15.0,18.0,84,0.03,,,0.22,Weather View 32 v70,2013-01-31 09:32:00,
2013-01-31 04:37:00,52.1,47.4,28.33,East,90,11.0,19.0,84,0.02,,,0.23,Weather View 32 v70,2013-01-31 09:37:00,
2013-01-31 04:42:00,52.0,47.3,28.33,East,90,7.0,19.0,84,0.03,,,0.23,Weather View 32 v70,2013-01-31 09:42:00,
2013-01-31 04:47:00,52.0,47.3,28.33,ESE,112,3.0,19.0,84,0.03,,,0.24,Weather View 32 v70,2013-01-31 09:47:00,
2013-01-31 04:52:00,52.1,47.1,28.32,SSE,157,6.0,19.0,83,0.04,,,0.25,Weather View 32 v70,2013-01-31 09:52:00,
2013-01-31 04:57:00,52.0,47.0,28.31,SSE,157,3.0,19.0,83,0.04,,,0.25,Weather View 32 v70,2013-01-31 09:57:00,
2013-01-31 05:02:00,52.2,47.2,28.31,SE,135,4.0,19.0,83,0.05,,,0.26,Weather View 32 v70,2013-01-31 10:02:00,
2013-01-31 05:07:00,52.3,47.3,28.32,SE,135,7.0,19.0,83,0.05,,,0.27,Weather View 32 v70,2013-01-31 10:07:00,
2013-01-31 05:12:00,52.3,47.3,28.34,SE,135,0.0,19.0,83,0.06,,,0.28,Weather View 32 v70,2013-01-31 10:12:00,
2013-01-31 05:17:00,52.4,47.7,28.34,South,180,6.0,19.0,84,0.06,,,0.28,Weather View 32 v70,2013-01-31 10:17:00,
2013-01-31 05:22:00,52.4,47.7,28.32,WSW,247,5.0,19.0,84,0.07,,,0.29,Weather View 32 v70,2013-01-31 10:22:00,
2013-01-31 05:27:00,52.6,47.9,28.32,ESE,112,7.0,19.0,84,0.08,,,0.30,Weather View 32 v70,2013-01-31 10:27:00,
2013-01-31 05:32:00,52.6,47.9,28.33,ESE,112,8.0,19.0,84,0.09,,,0.31,Weather View 32 v70,2013-01-31 10:32:00,
2013-01-31 05:37:00,52.5,47.8,28.30,ENE,67,10.0,19.0,84,0.11,,,0.33,Weather View 32 v70,2013-01-31 10:37:00,
2013-01-31 05:42:00,52.4,48.0,28.31,East,90,3.0,19.0,85,0.10,,,0.33,Weather View 32 v70,2013-01-31 10:42:00,
2013-01-31 05:47:00,52.2,47.8,28.29,ENE,67,7.0,15.0,85,0.09,,,0.33,Weather View 32 v70,2013-01-31 10:47:00,
2013-01-31 05:52:00,52.0,47.6,28.28,ESE,112,3.0,15.0,85,0.09,,,0.34,Weather View 32 v70,2013-01-31 10:52:00,
2013-01-31 05:57:00,52.1,47.1,28.30,ENE,67,9.0,15.0,83,0.09,,,0.34,Weather View 32 v70,2013-01-31 10:57:00,
2013-01-31 06:02:00,52.4,46.7,28.30,ESE,112,9.0,14.0,81,0.08,,,0.34,Weather View 32 v70,2013-01-31 11:02:00,
2013-01-31 06:07:00,52.6,46.9,28.31,ESE,112,8.0,15.0,81,0.09,,,0.35,Weather View 32 v70,2013-01-31 11:07:00,
2013-01-31 06:12:00,52.7,47.0,28.30,ESE,112,7.0,15.0,81,0.07,,,0.35,Weather View 32 v70,2013-01-31 11:12:00,
2013-01-31 06:17:00,52.7,47.3,28.29,SE,135,8.0,19.0,82,0.07,,,0.35,Weather View 32 v70,2013-01-31 11:17:00,
2013-01-31 06:22:00,52.7,47.3,28.26,ESE,112,8.0,19.0,82,0.07,,,0.36,Weather View 32 v70,2013-01-31 11:22:00,
2013-01-31 06:27:00,52.4,47.7,28.24,ESE,112,6.0,19.0,84,0.06,,,0.36,Weather View 32 v70,2013-01-31 11:27:00,
2013-01-31 06:32:00,51.9,47.5,28.25,ESE,112,6.0,19.0,85,0.05,,,0.36,Weather View 32 v70,2013-01-31 11:32:00,
2013-01-31 06:37:00,51.7,47.0,28.24,ESE,112,6.0,19.0,84,0.03,,,0.36,Weather View 32 v70,2013-01-31 11:37:00,
2013-01-31 06:42:00,51.8,45.8,28.24,ESE,112,12.0,19.0,80,0.03,,,0.36,Weather View 32 v70,2013-01-31 11:42:00,
2013-01-31 06:47:00,52.3,44.9,28.25,SE,135,9.0,19.0,76,0.03,,,0.36,Weather View 32 v70,2013-01-31 11:47:00,
2013-01-31 06:52:00,52.4,46.1,28.30,South,180,12.0,20.0,79,0.02,,,0.36,Weather View 32 v70,2013-01-31 11:52:00,
2013-01-31 06:57:00,51.3,48.2,28.31,SSW,202,10.0,28.0,89,0.02,,,0.36,Weather View 32 v70,2013-01-31 11:57:00,
2013-01-31 07:02:00,50.2,48.8,28.31,South,180,15.0,28.0,95,0.02,,,0.36,Weather View 32 v70,2013-01-31 12:02:00,
2013-01-31 07:07:00,49.2,46.7,28.31,WSW,247,16.0,28.0,91,0.01,,,0.36,Weather View 32 v70,2013-01-31 12:07:00,
2013-01-31 07:12:00,48.7,46.5,28.30,WSW,247,10.0,28.0,92,0.01,,,0.36,Weather View 32 v70,2013-01-31 12:12:00,
2013-01-31 07:17:00,48.2,43.6,28.31,SW,225,9.0,28.0,84,0.01,,,0.36,Weather View 32 v70,2013-01-31 12:17:00,
2013-01-31 07:22:00,47.9,43.9,28.32,SW,225,7.0,28.0,86,0.00,,,0.36,Weather View 32 v70,2013-01-31 12:22:00,
2013-01-31 07:27:00,47.6,42.4,28.32,WSW,247,15.0,28.0,82,0.00,,,0.36,Weather View 32 v70,2013-01-31 12:27:00,
2013-01-31 07:32:00,47.3,42.7,28.32,SSW,202,6.0,28.0,84,0.00,,,0.36,Weather View 32 v70,2013-01-31 12:32:00,
2013-01-31 07:37:00,47.0,43.3,28.32,SW,225,12.0,28.0,87,0.00,,,0.36,Weather View 32 v70,2013-01-31 12:37:00,
2013-01-31 07:42:00,46.9,43.2,28.32,SW,225,9.0,28.0,87,0.00,,,0.36,Weather View 32 v70,2013-01-31 12:42:00,
2013-01-31 07:47:00,46.9,44.4,28.34,South,180,19.0,28.0,91,0.00,,,0.36,Weather View 32 v70,2013-01-31 12:47:00,
2013-01-31 07:52:00,46.7,42.7,28.34,WSW,247,3.0,28.0,86,0.00,,,0.36,Weather View 32 v70,2013-01-31 12:52:00,
2013-01-31 07:57:00,46.4,41.2,28.34,South,180,6.0,28.0,82,0.00,,,0.36,Weather View 32 v70,2013-01-31 12:57:00,
2013-01-31 08:02:00,46.3,39.5,28.36,WSW,247,14.0,25.0,77,0.00,,,0.36,Weather View 32 v70,2013-01-31 13:02:00,
2013-01-31 08:07:00,46.0,39.2,28.36,SSW,202,11.0,25.0,77,0.00,,,0.36,Weather View 32 v70,2013-01-31 13:07:00,
2013-01-31 08:12:00,45.6,38.8,28.37,SSW,202,14.0,26.0,77,0.00,,,0.36,Weather View 32 v70,2013-01-31 13:12:00,
2013-01-31 08:17:00,45.2,37.4,28.38,South,180,4.0,26.0,74,0.00,,,0.36,Weather View 32 v70,2013-01-31 13:17:00,
2013-01-31 08:22:00,44.7,37.3,28.39,SW,225,13.0,26.0,75,0.00,,,0.36,Weather View 32 v70,2013-01-31 13:22:00,
2013-01-31 08:27:00,43.9,37.1,28.40,SSW,202,9.0,26.0,77,0.00,,,0.36,Weather View 32 v70,2013-01-31 13:27:00,
2013-01-31 08:32:00,43.2,35.8,28.42,SSW,202,10.0,26.0,75,0.01,,,0.37,Weather View 32 v70,2013-01-31 13:32:00,
2013-01-31 08:37:00,42.8,36.1,28.42,South,180,16.0,26.0,77,0.01,,,0.37,Weather View 32 v70,2013-01-31 13:37:00,
2013-01-31 08:42:00,42.7,36.0,28.42,South,180,9.0,26.0,77,0.01,,,0.37,Weather View 32 v70,2013-01-31 13:42:00,
2013-01-31 08:47:00,42.4,35.0,28.42,South,180,12.0,26.0,75,0.01,,,0.37,Weather View 32 v70,2013-01-31 13:47:00,
2013-01-31 08:52:00,42.4,35.0,28.42,SSE,157,7.0,26.0,75,0.01,,,0.37,Weather View 32 v70,2013-01-31 13:52:00,
2013-01-31 08:57:00,42.3,34.6,28.42,ESE,112,16.0,26.0,74,0.01,,,0.37,Weather View 32 v70,2013-01-31 13:57:00,
2013-01-31 09:02:00,42.3,34.9,28.42,SSE,157,0.0,26.0,75,0.01,,,0.37,Weather View 32 v70,2013-01-31 14:02:00,
2013-01-31 09:08:00,42.3,34.3,28.44,SSW,202,8.0,28.0,73,0.01,,,0.37,Weather View 32 v70,2013-01-31 14:08:00,
2013-01-31 09:13:00,42.3,34.3,28.44,SSE,157,15.0,28.0,73,0.01,,,0.37,Weather View 32 v70,2013-01-31 14:13:00,
2013-01-31 09:18:00,42.3,33.9,28.44,SSE,157,6.0,28.0,72,0.01,,,0.37,Weather View 32 v70,2013-01-31 14:18:00,
2013-01-31 09:23:00,42.2,33.1,28.44,SSW,202,7.0,28.0,70,0.01,,,0.37,Weather View 32 v70,2013-01-31 14:23:00,
2013-01-31 09:28:00,42.2,33.1,28.46,South,180,13.0,28.0,70,-0.35,,,0.37,Weather View 32 v70,2013-01-31 14:28:00,
2013-01-31 09:33:00,42.2,32.7,28.46,South,180,12.0,28.0,69,0.00,,,0.37,Weather View 32 v70,2013-01-31 14:33:00,
2013-01-31 09:38:00,42.3,33.6,28.47,South,180,6.0,28.0,71,0.00,,,0.37,Weather View 32 v70,2013-01-31 14:38:00,
2013-01-31 09:43:00,42.2,33.8,28.47,SSE,157,7.0,28.0,72,0.00,,,0.37,Weather View 32 v70,2013-01-31 14:43:00,
2013-01-31 09:48:00,42.1,33.7,28.48,SSW,202,16.0,28.0,72,0.00,,,0.37,Weather View 32 v70,2013-01-31 14:48:00,
2013-01-31 09:53:00,41.9,30.6,28.48,SSE,157,19.0,28.0,64,0.00,,,0.37,Weather View 32 v70,2013-01-31 14:53:00,
2013-01-31 09:58:00,41.8,32.0,28.48,SSW,202,12.0,28.0,68,0.00,,,0.37,Weather View 32 v70,2013-01-31 14:58:00,
2013-01-31 10:05:00,41.4,29.7,28.51,WSW,247,13.0,28.0,63,0.00,,,0.37,Weather View 32 v70,2013-01-31 15:05:00,
2013-01-31 10:10:00,41.1,31.0,28.51,South,180,16.0,28.0,67,0.00,,,0.37,Weather View 32 v70,2013-01-31 15:10:00,
2013-01-31 10:15:00,40.8,29.9,28.51,SSW,202,6.0,28.0,65,0.00,,,0.37,Weather View 32 v70,2013-01-31 15:15:00,
2013-01-31 10:20:00,40.7,28.7,28.51,South,180,17.0,28.0,62,0.00,,,0.37,Weather View 32 v70,2013-01-31 15:20:00,
2013-01-31 10:25:00,40.6,27.8,28.50,SSW,202,10.0,28.0,60,0.00,,,0.37,Weather View 32 v70,2013-01-31 15:25:00,
2013-01-31 10:30:00,40.5,28.1,28.51,SSW,202,12.0,28.0,61,0.00,,,0.37,Weather View 32 v70,2013-01-31 15:30:00,
2013-01-31 10:35:00,40.4,28.4,28.51,WSW,247,10.0,28.0,62,0.00,,,0.37,Weather View 32 v70,2013-01-31 15:35:00,
2013-01-31 10:40:00,40.1,27.7,28.51,SW,225,9.0,28.0,61,0.00,,,0.37,Weather View 32 v70,2013-01-31 15:40:00,
2013-01-31 10:45:00,40.0,28.8,28.52,SSW,202,11.0,28.0,64,0.00,,,0.37,Weather View 32 v70,2013-01-31 15:45:00,
2013-01-31 10:50:00,39.8,29.4,28.53,South,180,9.0,28.0,66,0.00,,,0.37,Weather View 32 v70,2013-01-31 15:50:00,
2013-01-31 10:55:00,39.7,29.3,28.53,SW,225,3.0,28.0,66,0.00,,,0.37,Weather View 32 v70,2013-01-31 15:55:00,
2013-01-31 11:00:00,39.4,29.0,28.53,WNW,292,7.0,28.0,66,0.00,,,0.37,Weather View 32 v70,2013-01-31 16:00:00,
2013-01-31 11:05:00,39.7,28.1,28.54,West,270,7.0,26.0,63,0.00,,,0.37,Weather View 32 v70,2013-01-31 16:05:00,
2013-01-31 11:10:00,40.2,28.6,28.54,NW,315,13.0,26.0,63,0.00,,,0.37,Weather View 32 v70,2013-01-31 16:10:00,
2013-01-31 11:15:00,41.0,28.6,28.55,WNW,292,8.0,26.0,61,0.00,,,0.37,Weather View 32 v70,2013-01-31 16:15:00,
2013-01-31 11:20:00,40.4,28.0,28.55,West,270,9.0,26.0,61,0.00,,,0.37,Weather View 32 v70,2013-01-31 16:20:00,
2013-01-31 11:25:00,39.5,24.6,28.54,WSW,247,10.0,26.0,55,0.00,,,0.37,Weather View 32 v70,2013-01-31 16:25:00,
2013-01-31 11:30:00,39.4,26.7,28.55,SW,225,10.0,26.0,60,0.00,,,0.37,Weather View 32 v70,2013-01-31 16:30:00,
2013-01-31 11:35:00,39.3,25.7,28.55,SW,225,12.0,25.0,58,0.00,,,0.37,Weather View 32 v70,2013-01-31 16:35:00,
2013-01-31 11:40:00,38.7,21.6,28.55,SSW,202,19.0,35.0,50,0.00,,,0.37,Weather View 32 v70,2013-01-31 16:40:00,
2013-01-31 11:45:00,38.8,24.0,28.55,SSW,202,11.0,35.0,55,0.00,,,0.37,Weather View 32 v70,2013-01-31 16:45:00,
2013-01-31 11:50:00,39.0,25.9,28.55,WSW,247,7.0,35.0,59,0.00,,,0.37,Weather View 32 v70,2013-01-31 16:50:00,
2013-01-31 11:55:00,39.2,25.2,28.55,South,180,15.0,35.0,57,0.00,,,0.37,Weather View 32 v70,2013-01-31 16:55:00,
2013-01-31 12:00:00,39.0,25.0,28.56,SW,225,11.0,35.0,57,0.00,,,0.37,Weather View 32 v70,2013-01-31 17:00:00,
2013-01-31 12:05:00,38.8,24.9,28.56,West,270,9.0,35.0,57,0.00,,,0.37,Weather View 32 v70,2013-01-31 17:05:00,
2013-01-31 12:10:00,38.6,24.2,28.56,SSW,202,8.0,35.0,56,0.00,,,0.37,Weather View 32 v70,2013-01-31 17:10:00,
2013-01-31 12:15:00,38.4,23.6,28.56,WSW,247,9.0,35.0,55,0.00,,,0.37,Weather View 32 v70,2013-01-31 17:15:00,
2013-01-31 12:20:00,38.1,22.0,28.57,SSW,202,14.0,35.0,52,0.00,,,0.37,Weather View 32 v70,2013-01-31 17:20:00,
2013-01-31 12:25:00,37.7,21.2,28.57,SSW,202,16.0,35.0,51,0.00,,,0.37,Weather View 32 v70,2013-01-31 17:25:00,
2013-01-31 12:30:00,37.5,21.9,28.57,WSW,247,15.0,35.0,53,0.00,,,0.37,Weather View 32 v70,2013-01-31 17:30:00,
2013-01-31 12:35:00,37.2,21.6,28.58,SW,225,15.0,35.0,53,0.00,,,0.37,Weather View 32 v70,2013-01-31 17:35:00,
2013-01-31 12:40:00,37.3,20.8,28.57,SSW,202,13.0,35.0,51,0.00,,,0.37,Weather View 32 v70,2013-01-31 17:40:00,
2013-01-31 12:45:00,37.2,20.3,28.58,WSW,247,9.0,35.0,50,0.00,,,0.37,Weather View 32 v70,2013-01-31 17:45:00,
2013-01-31 12:50:00,37.2,21.6,28.58,South,180,11.0,29.0,53,0.00,,,0.37,Weather View 32 v70,2013-01-31 17:50:00,
2013-01-31 12:55:00,36.8,20.3,28.59,SSW,202,19.0,29.0,51,0.00,,,0.37,Weather View 32 v70,2013-01-31 17:55:00,
2013-01-31 13:00:00,36.4,21.3,28.61,WSW,247,12.0,29.0,54,0.00,,,0.37,Weather View 32 v70,2013-01-31 18:00:00,
2013-01-31 13:05:00,36.7,22.5,28.62,SSW,202,3.0,29.0,56,0.00,,,0.37,Weather View 32 v70,2013-01-31 18:05:00,
2013-01-31 13:10:00,36.6,21.5,28.61,SSW,202,4.0,31.0,54,0.00,,,0.37,Weather View 32 v70,2013-01-31 18:10:00,
2013-01-31 13:15:00,35.7,21.1,28.62,WNW,292,13.0,31.0,55,0.00,,,0.37,Weather View 32 v70,2013-01-31 18:15:00,
2013-01-31 13:20:00,35.0,19.6,28.63,SSW,202,19.0,31.0,53,0.00,,,0.37,Weather View 32 v70,2013-01-31 18:20:00,
2013-01-31 13:25:00,34.9,20.4,28.63,SSW,202,9.0,31.0,55,0.00,,,0.37,Weather View 32 v70,2013-01-31 18:25:00,
2013-01-31 13:30:00,35.1,19.7,28.64,SSW,202,6.0,31.0,53,0.00,,,0.37,Weather View 32 v70,2013-01-31 18:30:00,
2013-01-31 13:35:00,35.1,19.2,28.64,SSW,202,15.0,31.0,52,0.00,,,0.37,Weather View 32 v70,2013-01-31 18:35:00,
2013-01-31 13:40:00,35.0,19.6,28.64,SSW,202,22.0,31.0,53,0.00,,,0.37,Weather View 32 v70,2013-01-31 18:40:00,
2013-01-31 13:45:00,35.0,18.7,28.65,SSW,202,12.0,31.0,51,0.00,,,0.37,Weather View 32 v70,2013-01-31 18:45:00,
2013-01-31 13:50:00,34.9,18.6,28.64,South,180,9.0,31.0,51,0.00,,,0.37,Weather View 32 v70,2013-01-31 18:50:00,
2013-01-31 13:55:00,34.9,19.0,28.65,SSW,202,4.0,31.0,52,0.00,,,0.37,Weather View 32 v70,2013-01-31 18:55:00,
2013-01-31 14:00:00,34.8,19.8,28.66,SSW,202,16.0,31.0,54,0.00,,,0.37,Weather View 32 v70,2013-01-31 19:00:00,
2013-01-31 14:05:00,34.4,20.7,28.66,WSW,247,10.0,31.0,57,0.00,,,0.37,Weather View 32 v70,2013-01-31 19:05:00,
2013-01-31 14:10:00,34.1,19.6,28.66,SW,225,9.0,31.0,55,0.00,,,0.37,Weather View 32 v70,2013-01-31 19:10:00,
2013-01-31 14:15:00,34.1,19.2,28.66,WSW,247,15.0,31.0,54,0.00,,,0.37,Weather View 32 v70,2013-01-31 19:15:00,
2013-01-31 14:20:00,34.2,19.3,28.64,SSW,202,14.0,29.0,54,0.00,,,0.37,Weather View 32 v70,2013-01-31 19:20:00,
2013-01-31 14:25:00,34.2,19.7,28.66,SW,225,22.0,29.0,55,0.00,,,0.37,Weather View 32 v70,2013-01-31 19:25:00,
2013-01-31 14:30:00,34.0,19.1,28.66,WSW,247,13.0,29.0,54,0.00,,,0.37,Weather View 32 v70,2013-01-31 19:30:00,
2013-01-31 14:35:00,34.0,19.9,28.66,SSW,202,7.0,29.0,56,0.00,,,0.37,Weather View 32 v70,2013-01-31 19:35:00,
2013-01-31 14:40:00,33.7,20.9,28.67,West,270,6.0,29.0,59,0.00,,,0.37,Weather View 32 v70,2013-01-31 19:40:00,
2013-01-31 14:45:00,33.2,20.8,28.67,WSW,247,13.0,29.0,60,0.00,,,0.37,Weather View 32 v70,2013-01-31 19:45:00,
2013-01-31 14:50:00,33.2,21.2,28.68,SSW,202,2.0,29.0,61,0.00,,,0.37,Weather View 32 v70,2013-01-31 19:50:00,
2013-01-31 14:55:00,33.1,21.5,28.68,SW,225,10.0,29.0,62,0.00,,,0.37,Weather View 32 v70,2013-01-31 19:55:00,
2013-01-31 15:00:00,32.8,21.6,28.69,SSW,202,13.0,29.0,63,0.00,,,0.37,Weather View 32 v70,2013-01-31 20:00:00,
2013-01-31 15:05:00,32.8,22.0,28.68,SSW,202,10.0,29.0,64,0.00,,,0.37,Weather View 32 v70,2013-01-31 20:05:00,
2013-01-31 15:10:00,33.2,21.2,28.69,SSW,202,9.0,29.0,61,0.00,,,0.37,Weather View 32 v70,2013-01-31 20:10:00,
2013-01-31 15:15:00,33.0,19.4,28.69,WSW,247,20.0,29.0,57,0.00,,,0.37,Weather View 32 v70,2013-01-31 20:15:00,
2013-01-31 15:20:00,32.8,20.8,28.70,WSW,247,15.0,29.0,61,0.00,,,0.37,Weather View 32 v70,2013-01-31 20:20:00,
2013-01-31 15:25:00,32.7,19.1,28.70,South,180,8.0,30.0,57,0.00,,,0.37,Weather View 32 v70,2013-01-31 20:25:00,
2013-01-31 15:30:00,32.7,19.9,28.70,WSW,247,14.0,30.0,59,0.00,,,0.37,Weather View 32 v70,2013-01-31 20:30:00,
2013-01-31 15:35:00,33.1,18.7,28.70,SW,225,11.0,30.0,55,0.00,,,0.37,Weather View 32 v70,2013-01-31 20:35:00,
2013-01-31 15:40:00,33.0,17.3,28.71,WSW,247,2.0,30.0,52,0.00,,,0.37,Weather View 32 v70,2013-01-31 20:40:00,
2013-01-31 15:45:00,32.9,17.6,28.71,South,180,18.0,30.0,53,0.00,,,0.37,Weather View 32 v70,2013-01-31 20:45:00,
2013-01-31 15:50:00,32.8,17.1,28.71,SSW,202,18.0,30.0,52,0.00,,,0.37,Weather View 32 v70,2013-01-31 20:50:00,
2013-01-31 15:55:00,32.6,17.8,28.72,South,180,13.0,30.0,54,0.00,,,0.37,Weather View 32 v70,2013-01-31 20:55:00,
2013-01-31 16:00:00,32.2,17.4,28.72,SW,225,7.0,30.0,54,0.00,,,0.37,Weather View 32 v70,2013-01-31 21:00:00,
2013-01-31 16:05:00,32.0,17.6,28.73,SSW,202,4.0,36.0,55,0.00,,,0.37,Weather View 32 v70,2013-01-31 21:05:00,
2013-01-31 16:10:00,31.9,17.1,28.73,WSW,247,14.0,36.0,54,0.00,,,0.37,Weather View 32 v70,2013-01-31 21:10:00,
2013-01-31 16:15:00,31.9,17.6,28.73,SSW,202,16.0,36.0,55,0.00,,,0.37,Weather View 32 v70,2013-01-31 21:15:00,
2013-01-31 16:20:00,32.0,16.4,28.73,West,270,6.0,36.0,52,0.00,,,0.37,Weather View 32 v70,2013-01-31 21:20:00,
2013-01-31 16:25:00,31.9,16.7,28.74,SW,225,9.0,36.0,53,0.00,,,0.37,Weather View 32 v70,2013-01-31 21:25:00,
2013-01-31 16:30:00,31.5,19.2,28.74,SW,225,6.0,36.0,60,0.00,,,0.37,Weather View 32 v70,2013-01-31 21:30:00,
2013-01-31 16:35:00,31.3,18.6,28.75,SSW,202,13.0,36.0,59,0.00,,,0.37,Weather View 32 v70,2013-01-31 21:35:00,
2013-01-31 16:40:00,31.2,17.7,28.76,SSW,202,12.0,36.0,57,0.00,,,0.37,Weather View 32 v70,2013-01-31 21:40:00,
2013-01-31 16:45:00,31.0,17.1,28.76,SSW,202,7.0,36.0,56,0.00,,,0.37,Weather View 32 v70,2013-01-31 21:45:00,
2013-01-31 16:50:00,30.9,17.4,28.76,SW,225,13.0,36.0,57,0.00,,,0.37,Weather View 32 v70,2013-01-31 21:50:00,
2013-01-31 16:55:00,30.8,17.8,28.76,SSW,202,6.0,36.0,58,0.00,,,0.37,Weather View 32 v70,2013-01-31 21:55:00,
2013-01-31 17:00:00,30.8,17.4,28.76,SSW,202,10.0,36.0,57,0.00,,,0.37,Weather View 32 v70,2013-01-31 22:00:00,
2013-01-31 17:05:00,30.8,17.8,28.77,SSW,202,8.0,36.0,58,0.00,,,0.37,Weather View 32 v70,2013-01-31 22:05:00,
2013-01-31 17:10:00,30.6,18.4,28.78,SSW,202,5.0,36.0,60,0.00,,,0.37,Weather View 32 v70,2013-01-31 22:10:00,
2013-01-31 17:15:00,30.4,18.9,28.78,South,180,12.0,36.0,62,0.00,,,0.37,Weather View 32 v70,2013-01-31 22:15:00,
2013-01-31 17:20:00,29.7,20.8,28.78,SW,225,13.0,31.0,69,0.00,,,0.37,Weather View 32 v70,2013-01-31 22:20:00,
2013-01-31 17:25:00,29.4,20.1,28.78,WSW,247,9.0,31.0,68,0.00,,,0.37,Weather View 32 v70,2013-01-31 22:25:00,
2013-01-31 17:30:00,29.4,20.1,28.79,South,180,12.0,31.0,68,0.00,,,0.37,Weather View 32 v70,2013-01-31 22:30:00,
2013-01-31 17:35:00,29.0,21.4,28.79,SSW,202,9.0,31.0,73,0.00,,,0.37,Weather View 32 v70,2013-01-31 22:35:00,
2013-01-31 17:40:00,28.6,22.3,28.80,South,180,15.0,31.0,77,0.00,,,0.37,Weather View 32 v70,2013-01-31 22:40:00,
2013-01-31 17:45:00,28.2,23.1,28.80,SSE,157,13.0,31.0,81,0.00,,,0.37,Weather View 32 v70,2013-01-31 22:45:00,
2013-01-31 17:50:00,27.4,24.3,28.81,South,180,15.0,31.0,88,0.00,,,0.37,Weather View 32 v70,2013-01-31 22:50:00,
2013-01-31 17:55:00,27.0,24.2,28.81,SSW,202,12.0,31.0,89,0.00,,,0.37,Weather View 32 v70,2013-01-31 22:55:00,
2013-01-31 18:00:00,26.9,24.1,28.81,SSW,202,22.0,31.0,89,0.00,,,0.37,Weather View 32 v70,2013-01-31 23:00:00,
2013-01-31 18:05:00,26.7,24.2,28.81,SSW,202,7.0,31.0,90,0.00,,,0.37,Weather View 32 v70,2013-01-31 23:05:00,
2013-01-31 18:10:00,26.7,23.9,28.81,SW,225,11.0,31.0,89,0.00,,,0.37,Weather View 32 v70,2013-01-31 23:10:00,
2013-01-31 18:15:00,26.8,23.2,28.81,SSW,202,9.0,31.0,86,0.00,,,0.37,Weather View 32 v70,2013-01-31 23:15:00,
2013-01-31 18:20:00,27.0,22.2,28.81,SSW,202,8.0,31.0,82,0.00,,,0.37,Weather View 32 v70,2013-01-31 23:20:00,
2013-01-31 18:25:00,27.0,21.7,28.82,SE,135,7.0,31.0,80,0.00,,,0.37,Weather View 32 v70,2013-01-31 23:25:00,
2013-01-31 18:30:00,27.0,21.9,28.81,SSE,157,6.0,31.0,81,0.00,,,0.37,Weather View 32 v70,2013-01-31 23:30:00,
2013-01-31 18:35:00,26.9,21.9,28.82,SSW,202,9.0,26.0,81,0.00,,,0.37,Weather View 32 v70,2013-01-31 23:35:00,
2013-01-31 18:40:00,26.9,21.3,28.83,SSW,202,12.0,26.0,79,0.00,,,0.37,Weather View 32 v70,2013-01-31 23:40:00,
2013-01-31 18:45:00,27.0,21.1,28.83,SSW,202,12.0,26.0,78,0.00,,,0.37,Weather View 32 v70,2013-01-31 23:45:00,
2013-01-31 18:50:00,27.0,19.8,28.83,SSW,202,6.0,25.0,74,0.00,,,0.37,Weather View 32 v70,2013-01-31 23:50:00,
2013-01-31 18:55:00,27.2,19.4,28.83,SSW,202,12.0,25.0,72,0.00,,,0.37,Weather View 32 v70,2013-01-31 23:55:00,
2013-01-31 19:00:00,27.2,20.0,28.84,SSW,202,12.0,25.0,74,0.00,,,0.37,Weather View 32 v70,2013-02-01 00:00:00,
2013-01-31 19:05:00,27.1,18.9,28.84,SW,225,4.0,25.0,71,0.00,,,0.37,Weather View 32 v70,2013-02-01 00:05:00,
2013-01-31 19:10:00,27.2,19.0,28.84,WSW,247,12.0,25.0,71,0.00,,,0.37,Weather View 32 v70,2013-02-01 00:10:00,
2013-01-31 19:15:00,27.3,17.8,28.84,South,180,8.0,25.0,67,0.00,,,0.37,Weather View 32 v70,2013-02-01 00:15:00,
2013-01-31 19:21:00,27.3,18.8,28.85,SSW,202,10.0,25.0,70,0.00,,,0.37,Weather View 32 v70,2013-02-01 00:21:00,
2013-01-31 19:26:00,27.4,17.9,28.85,SSW,202,5.0,25.0,67,0.00,,,0.37,Weather View 32 v70,2013-02-01 00:26:00,
2013-01-31 19:31:00,27.2,17.7,28.85,SW,225,5.0,25.0,67,0.00,,,0.37,Weather View 32 v70,2013-02-01 00:31:00,
2013-01-31 19:36:00,27.1,16.9,28.85,SSW,202,12.0,20.0,65,0.00,,,0.37,Weather View 32 v70,2013-02-01 00:36:00,
2013-01-31 19:41:00,27.1,16.9,28.86,SW,225,14.0,20.0,65,0.00,,,0.37,Weather View 32 v70,2013-02-01 00:41:00,
2013-01-31 19:46:00,27.0,16.4,28.86,SSW,202,6.0,20.0,64,0.00,,,0.37,Weather View 32 v70,2013-02-01 00:46:00,
2013-01-31 19:51:00,27.0,16.1,28.86,SSE,157,4.0,20.0,63,0.00,,,0.37,Weather View 32 v70,2013-02-01 00:51:00,
2013-01-31 19:56:00,26.8,15.1,28.86,SSW,202,16.0,20.0,61,0.00,,,0.37,Weather View 32 v70,2013-02-01 00:56:00,
2013-01-31 20:01:00,26.8,15.9,28.87,South,180,11.0,20.0,63,0.00,,,0.37,Weather View 32 v70,2013-02-01 01:01:00,
2013-01-31 20:06:00,26.7,15.4,28.87,SSE,157,10.0,20.0,62,0.00,,,0.37,Weather View 32 v70,2013-02-01 01:06:00,
2013-01-31 20:11:00,26.7,15.1,28.87,SSE,157,7.0,20.0,61,0.00,,,0.37,Weather View 32 v70,2013-02-01 01:11:00,
2013-01-31 20:16:00,26.6,15.7,28.87,SW,225,9.0,20.0,63,0.00,,,0.37,Weather View 32 v70,2013-02-01 01:16:00,
2013-01-31 20:21:00,26.4,15.5,28.88,SSW,202,9.0,20.0,63,0.00,,,0.37,Weather View 32 v70,2013-02-01 01:21:00,
2013-01-31 20:26:00,26.4,15.1,28.87,SSW,202,3.0,20.0,62,0.00,,,0.37,Weather View 32 v70,2013-02-01 01:26:00,
2013-01-31 20:31:00,26.4,15.1,28.88,SSE,157,8.0,20.0,62,0.00,,,0.37,Weather View 32 v70,2013-02-01 01:31:00,
2013-01-31 20:36:00,26.2,15.3,28.87,SSW,202,9.0,20.0,63,0.00,,,0.37,Weather View 32 v70,2013-02-01 01:36:00,
2013-01-31 20:41:00,26.3,14.7,28.89,SW,225,12.0,20.0,61,0.00,,,0.37,Weather View 32 v70,2013-02-01 01:41:00,
2013-01-31 20:46:00,26.2,14.6,28.89,SW,225,10.0,20.0,61,0.00,,,0.37,Weather View 32 v70,2013-02-01 01:46:00,
2013-01-31 20:51:00,26.1,14.5,28.89,SW,225,9.0,19.0,61,0.00,,,0.37,Weather View 32 v70,2013-02-01 01:51:00,
2013-01-31 20:56:00,26.0,14.4,28.89,SSW,202,8.0,19.0,61,0.00,,,0.37,Weather View 32 v70,2013-02-01 01:56:00,
2013-01-31 21:01:00,25.9,13.9,28.90,South,180,0.0,19.0,60,0.00,,,0.37,Weather View 32 v70,2013-02-01 02:01:00,
2013-01-31 21:06:00,25.8,14.2,28.90,South,180,9.0,19.0,61,0.00,,,0.37,Weather View 32 v70,2013-02-01 02:06:00,
2013-01-31 21:11:00,25.6,14.0,28.90,SSW,202,5.0,19.0,61,0.00,,,0.37,Weather View 32 v70,2013-02-01 02:11:00,
2013-01-31 21:16:00,25.6,13.3,28.90,WSW,247,4.0,19.0,59,0.00,,,0.37,Weather View 32 v70,2013-02-01 02:16:00,
2013-01-31 21:21:00,25.5,13.9,28.91,SW,225,4.0,19.0,61,0.00,,,0.37,Weather View 32 v70,2013-02-01 02:21:00,
2013-01-31 21:26:00,25.4,14.2,28.91,South,180,9.0,19.0,62,0.00,,,0.37,Weather View 32 v70,2013-02-01 02:26:00,
2013-01-31 21:31:00,25.3,14.1,28.91,SSW,202,7.0,19.0,62,0.00,,,0.37,Weather View 32 v70,2013-02-01 02:31:00,
2013-01-31 21:36:00,25.2,13.6,28.91,SW,225,7.0,19.0,61,0.00,,,0.37,Weather View 32 v70,2013-02-01 02:36:00,
2013-01-31 21:41:00,25.2,13.6,28.91,SSW,202,4.0,19.0,61,0.00,,,0.37,Weather View 32 v70,2013-02-01 02:41:00,
2013-01-31 21:46:00,25.1,14.3,28.92,South,180,6.0,19.0,63,0.00,,,0.37,Weather View 32 v70,2013-02-01 02:46:00,
2013-01-31 21:51:00,25.1,13.5,28.92,WSW,247,7.0,19.0,61,0.00,,,0.37,Weather View 32 v70,2013-02-01 02:51:00,
2013-01-31 21:57:00,25.0,13.8,28.92,WSW,247,3.0,19.0,62,0.00,,,0.37,Weather View 32 v70,2013-02-01 02:57:00,
2013-01-31 22:02:00,25.0,13.4,28.92,SSW,202,4.0,17.0,61,-0.32,,,0.37,Weather View 32 v70,2013-02-01 03:02:00,
2013-01-31 22:07:00,25.0,13.4,28.92,SW,225,12.0,17.0,61,0.00,,,0.37,Weather View 32 v70,2013-02-01 03:07:00,
2013-01-31 22:12:00,24.9,13.7,28.93,WSW,247,7.0,17.0,62,0.00,,,0.37,Weather View 32 v70,2013-02-01 03:12:00,
2013-01-31 22:17:00,24.8,13.6,28.92,South,180,8.0,16.0,62,0.00,,,0.37,Weather View 32 v70,2013-02-01 03:17:00,
2013-01-31 22:22:00,24.7,13.5,28.93,SSW,202,11.0,16.0,62,0.00,,,0.37,Weather View 32 v70,2013-02-01 03:22:00,
2013-01-31 22:27:00,24.4,14.0,28.93,South,180,7.0,16.0,64,0.00,,,0.37,Weather View 32 v70,2013-02-01 03:27:00,
2013-01-31 22:32:00,24.4,13.6,28.93,South,180,7.0,17.0,63,0.00,,,0.37,Weather View 32 v70,2013-02-01 03:32:00,
2013-01-31 22:37:00,24.2,13.4,28.93,SSW,202,11.0,17.0,63,0.00,,,0.37,Weather View 32 v70,2013-02-01 03:37:00,
2013-01-31 22:42:00,24.1,13.3,28.93,SSW,202,16.0,18.0,63,0.00,,,0.37,Weather View 32 v70,2013-02-01 03:42:00,
2013-01-31 22:47:00,24.0,13.6,28.93,SSW,202,5.0,18.0,64,0.00,,,0.37,Weather View 32 v70,2013-02-01 03:47:00,
2013-01-31 22:52:00,23.8,13.4,28.93,SW,225,6.0,18.0,64,0.00,,,0.37,Weather View 32 v70,2013-02-01 03:52:00,
2013-01-31 22:57:00,23.6,13.2,28.94,SSW,202,7.0,18.0,64,0.00,,,0.37,Weather View 32 v70,2013-02-01 03:57:00,
2013-01-31 23:02:00,23.6,13.6,28.93,SSE,157,10.0,18.0,65,0.00,,,0.37,Weather View 32 v70,2013-02-01 04:02:00,
2013-01-31 23:07:00,23.4,13.4,28.94,SSW,202,6.0,18.0,65,0.00,,,0.37,Weather View 32 v70,2013-02-01 04:07:00,
2013-01-31 23:12:00,23.4,13.4,28.93,SSE,157,11.0,18.0,65,0.00,,,0.37,Weather View 32 v70,2013-02-01 04:12:00,
2013-01-31 23:17:00,23.3,13.3,28.94,SW,225,8.0,18.0,65,0.00,,,0.37,Weather View 32 v70,2013-02-01 04:17:00,
2013-01-31 23:22:00,23.2,13.5,28.94,SW,225,3.0,18.0,66,0.00,,,0.37,Weather View 32 v70,2013-02-01 04:22:00,
2013-01-31 23:27:00,23.1,13.4,28.93,WSW,247,9.0,18.0,66,0.00,,,0.37,Weather View 32 v70,2013-02-01 04:27:00,
2013-01-31 23:32:00,23.0,13.0,28.94,SW,225,1.0,18.0,65,0.00,,,0.37,Weather View 32 v70,2013-02-01 04:32:00,
2013-01-31 23:37:00,22.8,13.1,28.94,SSW,202,11.0,18.0,66,0.00,,,0.37,Weather View 32 v70,2013-02-01 04:37:00,
2013-01-31 23:42:00,22.8,12.8,28.94,SW,225,7.0,18.0,65,0.00,,,0.37,Weather View 32 v70,2013-02-01 04:42:00,
2013-01-31 23:47:00,22.7,13.0,28.94,SSW,202,9.0,18.0,66,0.00,,,0.37,Weather View 32 v70,2013-02-01 04:47:00,
2013-01-31 23:52:00,22.6,12.6,28.94,SSW,202,1.0,18.0,65,0.00,,,0.37,Weather View 32 v70,2013-02-01 04:52:00,
2013-01-31 23:57:00,22.6,12.6,28.94,SSW,202,9.0,18.0,65,0.00,,,0.37,Weather View 32 v70,2013-02-01 04:57:00,